• In Italy
  • List of Countries
  • For 7 days
  • Water Temperature
  • Satellite Maps
  • Weather Map
  • Weather Widgets
  • user-avatar
    Login

    Hourly Weather Saidpur

    Today, 21 September, Friday

    Time Temperature Precipitation Wind Pressure Humidity
    00:00 +28°C° 0 mm 3 mps 753 mmHg 78%
    01:00 +28°C° 0.2 mm 2 mps 753 mmHg 79%
    02:00 +28°C° 0.2 mm 2 mps 753 mmHg 80%
    03:00 +28°C° 0.2 mm 2 mps 752 mmHg 80%
    04:00 +28°C° 0 mm 2 mps 752 mmHg 80%
    05:00 +27°C° 0 mm 2 mps 753 mmHg 81%
    06:00 +27°C° 0 mm 2 mps 753 mmHg 81%
    07:00 +29°C° 0 mm 3 mps 753 mmHg 76%
    08:00 +30°C° 0 mm 3 mps 754 mmHg 71%
    09:00 +33°C° 0 mm 4 mps 754 mmHg 66%
    10:00 +34°C° 0 mm 4 mps 754 mmHg 62%
    11:00 +35°C° 0 mm 4 mps 754 mmHg 58%
    12:00 +36°C° 0 mm 5 mps 755 mmHg 54%
    13:00 +36°C° 0.3 mm 5 mps 754 mmHg 54%
    14:00 +37°C° 0.3 mm 5 mps 753 mmHg 54%
    15:00 +37°C° 0.3 mm 5 mps 753 mmHg 54%
    16:00 +35°C° 0.4 mm 4 mps 753 mmHg 59%
    17:00 +34°C° 0.4 mm 3 mps 753 mmHg 64%
    18:00 +31°C° 0 mm 3 mps 754 mmHg 75%
    19:00 +30°C° 0.5 mm 3 mps 755 mmHg 78%
    20:00 +30°C° 0.5 mm 2 mps 755 mmHg 81%
    21:00 +29°C° 0.5 mm 2 mps 756 mmHg 84%
    22:00 +29°C° 0 mm 2 mps 756 mmHg 85%
    23:00 +28°C° 0 mm 2 mps 756 mmHg 86%

    Tomorrow, 22 September, Saturday

    Time Temperature Precipitation Wind Pressure Humidity
    00:00 +28°C° 0 mm 2 mps 756 mmHg 88%
    01:00 +28°C° 0 mm 1 mps 756 mmHg 88%
    02:00 +28°C° 0 mm 1 mps 756 mmHg 89%
    03:00 +28°C° 0 mm 1 mps 755 mmHg 90%
    04:00 +27°C° 0 mm 1 mps 755 mmHg 90%
    05:00 +27°C° 0 mm 1 mps 756 mmHg 89%
    06:00 +27°C° 0 mm 1 mps 756 mmHg 89%
    07:00 +28°C° 0 mm 1 mps 756 mmHg 83%
    08:00 +30°C° 0 mm 2 mps 757 mmHg 76%
    09:00 +31°C° 0 mm 2 mps 757 mmHg 69%
    10:00 +32°C° 0 mm 2 mps 757 mmHg 65%
    11:00 +34°C° 0 mm 2 mps 756 mmHg 60%
    12:00 +35°C° 0 mm 2 mps 756 mmHg 55%
    13:00 +36°C° 0 mm 2 mps 755 mmHg 54%
    14:00 +36°C° 0 mm 2 mps 754 mmHg 53%
    15:00 +36°C° 0 mm 2 mps 754 mmHg 53%
    16:00 +35°C° 0 mm 2 mps 753 mmHg 57%
    17:00 +34°C° 0 mm 2 mps 753 mmHg 61%
    18:00 +32°C° 0 mm 2 mps 753 mmHg 65%
    19:00 +32°C° 0 mm 2 mps 754 mmHg 66%
    20:00 +31°C° 0 mm 2 mps 755 mmHg 68%
    21:00 +31°C° 0 mm 2 mps 755 mmHg 69%
    22:00 +31°C° 0 mm 2 mps 755 mmHg 71%
    23:00 +30°C° 0 mm 2 mps 755 mmHg 73%

    Day after tomorrow, 23 September, Sunday

    Time Temperature Precipitation Wind Pressure Humidity
    00:00 +30°C° 0 mm 2 mps 755 mmHg 75%
    01:00 +30°C° 0.2 mm 2 mps 755 mmHg 77%
    02:00 +29°C° 0.2 mm 2 mps 755 mmHg 79%
    03:00 +29°C° 0.2 mm 2 mps 755 mmHg 81%
    04:00 +29°C° 0 mm 2 mps 755 mmHg 82%
    05:00 +28°C° 0 mm 2 mps 755 mmHg 84%
    06:00 +28°C° 0 mm 2 mps 755 mmHg 85%
    07:00 +30°C° 0.1 mm 2 mps 755 mmHg 80%
    08:00 +31°C° 0.1 mm 2 mps 756 mmHg 74%
    09:00 +32°C° 0.1 mm 2 mps 756 mmHg 69%
    10:00 +34°C° 0 mm 2 mps 756 mmHg 64%
    11:00 +35°C° 0 mm 2 mps 756 mmHg 59%
    12:00 +36°C° 0 mm 2 mps 755 mmHg 55%
    13:00 +37°C° 0 mm 2 mps 754 mmHg 54%
    14:00 +37°C° 0 mm 3 mps 753 mmHg 53%
    15:00 +37°C° 0 mm 3 mps 753 mmHg 52%
    16:00 +36°C° 0 mm 2 mps 752 mmHg 56%
    17:00 +35°C° 0 mm 2 mps 752 mmHg 60%
    18:00 +34°C° 0 mm 2 mps 752 mmHg 64%
    19:00 +34°C° 0 mm 2 mps 753 mmHg 65%
    20:00 +32°C° 0 mm 2 mps 753 mmHg 66%
    21:00 +32°C° 0 mm 2 mps 754 mmHg 67%
    22:00 +31°C° 0 mm 2 mps 754 mmHg 69%
    23:00 +31°C° 0 mm 2 mps 754 mmHg 71%

    24 September, Monday

    Time Temperature Precipitation Wind Pressure Humidity
    00:00 +31°C° 0 mm 2 mps 754 mmHg 73%
    01:00 +30°C° 0.2 mm 3 mps 753 mmHg 74%
    02:00 +30°C° 0.2 mm 3 mps 753 mmHg 76%
    03:00 +30°C° 0.2 mm 3 mps 753 mmHg 77%
    04:00 +30°C° 0.4 mm 3 mps 753 mmHg 78%
    05:00 +29°C° 0.4 mm 2 mps 753 mmHg 79%
    06:00 +29°C° 0.4 mm 2 mps 753 mmHg 80%
    07:00 +30°C° 0.2 mm 2 mps 754 mmHg 76%
    08:00 +31°C° 0.2 mm 2 mps 754 mmHg 73%
    09:00 +32°C° 0.2 mm 2 mps 755 mmHg 69%
    10:00 +34°C° 1.9 mm 2 mps 754 mmHg 66%
    11:00 +35°C° 1.9 mm 2 mps 754 mmHg 62%
    12:00 +36°C° 1.9 mm 3 mps 753 mmHg 59%
    13:00 +36°C° 0.3 mm 3 mps 753 mmHg 59%
    14:00 +36°C° 0.3 mm 2 mps 752 mmHg 58%
    15:00 +36°C° 0.3 mm 2 mps 751 mmHg 58%
    16:00 +35°C° 0.6 mm 2 mps 751 mmHg 63%
    17:00 +34°C° 0.6 mm 2 mps 751 mmHg 68%
    18:00 +32°C° 0.6 mm 1 mps 751 mmHg 72%
    19:00 +32°C° 0.3 mm 1 mps 751 mmHg 73%
    20:00 +31°C° 0.3 mm 2 mps 752 mmHg 74%
    21:00 +31°C° 0.3 mm 2 mps 753 mmHg 75%
    22:00 +31°C° 0.1 mm 2 mps 752 mmHg 76%
    23:00 +30°C° 0.1 mm 2 mps 752 mmHg 77%

    25 September, Tuesday

    Time Temperature Precipitation Wind Pressure Humidity
    00:00 +30°C° 0.1 mm 2 mps 752 mmHg 78%
    01:00 +30°C° 0.2 mm 2 mps 752 mmHg 80%
    02:00 +30°C° 0.2 mm 2 mps 751 mmHg 81%
    03:00 +29°C° 0.2 mm 2 mps 751 mmHg 82%
    04:00 +29°C° 0.2 mm 2 mps 751 mmHg 83%
    05:00 +29°C° 0.2 mm 2 mps 751 mmHg 84%
    06:00 +29°C° 0.2 mm 1 mps 752 mmHg 84%
    07:00 +30°C° 0 mm 2 mps 752 mmHg 79%
    08:00 +31°C° 0 mm 2 mps 753 mmHg 74%
    09:00 +33°C° 0 mm 3 mps 753 mmHg 69%
    10:00 +34°C° 0 mm 3 mps 753 mmHg 64%
    11:00 +35°C° 0 mm 4 mps 753 mmHg 60%
    12:00 +36°C° 0 mm 4 mps 752 mmHg 55%
    13:00 +36°C° 0 mm 4 mps 752 mmHg 55%
    14:00 +36°C° 0 mm 4 mps 751 mmHg 54%
    15:00 +37°C° 0 mm 4 mps 750 mmHg 54%
    16:00 +35°C° 0 mm 3 mps 750 mmHg 58%
    17:00 +34°C° 0 mm 3 mps 750 mmHg 62%
    18:00 +32°C° 0 mm 2 mps 750 mmHg 66%
    19:00 +32°C° 0 mm 2 mps 750 mmHg 67%
    20:00 +32°C° 0 mm 2 mps 751 mmHg 67%
    21:00 +31°C° 0 mm 2 mps 751 mmHg 68%
    22:00 +31°C° 0 mm 2 mps 751 mmHg 69%
    23:00 +30°C° 0 mm 2 mps 751 mmHg 70%

    26 September, Wednesday

    Time Temperature Precipitation Wind Pressure Humidity
    00:00 +30°C° 0 mm 2 mps 751 mmHg 72%
    01:00 +30°C° 0.1 mm 2 mps 751 mmHg 73%
    02:00 +29°C° 0.1 mm 2 mps 751 mmHg 74%
    03:00 +29°C° 0.1 mm 2 mps 750 mmHg 75%
    04:00 +29°C° 0 mm 2 mps 751 mmHg 75%
    05:00 +29°C° 0 mm 2 mps 751 mmHg 76%
    06:00 +29°C° 0 mm 1 mps 751 mmHg 76%
    07:00 +30°C° 0 mm 2 mps 752 mmHg 72%
    08:00 +31°C° 0 mm 2 mps 752 mmHg 69%
    09:00 +34°C° 0 mm 2 mps 753 mmHg 65%
    10:00 +35°C° 0.8 mm 2 mps 752 mmHg 62%
    11:00 +35°C° 0.8 mm 2 mps 752 mmHg 59%
    12:00 +36°C° 0.8 mm 2 mps 752 mmHg 55%
    13:00 +36°C° 1.3 mm 2 mps 751 mmHg 57%
    14:00 +36°C° 1.3 mm 2 mps 750 mmHg 58%
    15:00 +36°C° 1.3 mm 2 mps 750 mmHg 59%
    16:00 +35°C° 0.2 mm 2 mps 750 mmHg 62%
    17:00 +33°C° 0.2 mm 1 mps 750 mmHg 66%
    18:00 +32°C° 0.2 mm 1 mps 750 mmHg 69%
    19:00 +32°C° 0 mm 1 mps 750 mmHg 70%
    20:00 +31°C° 0 mm 1 mps 751 mmHg 71%
    21:00 +31°C° 0 mm 1 mps 751 mmHg 72%
    22:00 +31°C° 0 mm 1 mps 751 mmHg 73%
    23:00 +30°C° 0 mm 1 mps 751 mmHg 74%
    Show more